Gainesville, GA

8:48 AM EST on December 15, 2019 (GMT -0500)
Gilmer Memorial

Weather History for KGVL - August, 2019

Change the Weather History Date:

Sunday, August 25, 2019

  Actual Average Record
Temperature  
Mean Temperature 69 °F 77 °F  
Max Temperature 75 °F 86 °F 101 °F (1968)
Min Temperature 63 °F 69 °F 56 °F (1952)
Cooling Degree Days 4 12  
Month to date cooling degree days 379 336  
Year to date cooling degree days 1452 1258  
Since 1 June cooling degree days 1116 1083  
Growing Degree Days 19 (Base 50)    
Moisture  
Dew Point 63 °F    
Average Humidity 77    
Maximum Humidity 90    
Minimum Humidity 64    
Precipitation  
Precipitation T in 0.14 in 3.53 in (1985)
Month to date precipitation 2.13 3.74  
Year to date precipitation 36.97 35.56  
Sea Level Pressure  
Sea Level Pressure 30.10 in    
Wind  
Wind Speed 10 mph (East)    
Max Wind Speed 16 mph    
Max Gust Speed 21 mph    
Visibility 10 miles    
Events      
T = Trace of Precipitation, MM = Missing Value Source: NWS Daily Summary

Daily Weather History Graph

Daily Weather History Graph

Search for Another Location

Airport or City:

Astronomy

Aug. 25, 2019 Rise Set
Actual Time 7:03 AM EDT 8:10 PM EDT
Civil Twilight 6:37 AM EDT 8:36 PM EDT
Nautical Twilight 6:06 AM EDT 9:07 PM EDT
Astronomical Twilight 5:34 AM EDT 9:39 PM EDT
Moon 1:45 AM EDT (8/25) 4:21 PM EDT (8/25)
Length of Visible Light 13h 59m
Length of Day
13h 07m
Waning Crescent, 29% of the Moon is Illuminated
Aug 25
Waning Crescent
Aug 30
New
Sep 5
First Quarter
Sep 14
Full
Sep 21
Last Quarter

Hourly Weather History & Observations

Time (EDT) Temp. Dew Point Humidity Pressure Visibility Wind Dir Wind Speed Gust Speed Precip Events Conditions
12:53 AM 66.9 °F 63.0 °F 87% 30.12 in 10.0 mi East 12.7 mph - N/A   Overcast
1:29 AM 66.9 °F 63.0 °F 87% 30.16 in 10.0 mi East 9.2 mph - N/A   Overcast
1:53 AM 66.9 °F 63.0 °F 87% 30.10 in 10.0 mi ENE 11.5 mph - N/A   Overcast
2:53 AM 66.9 °F 63.0 °F 87% 30.09 in 10.0 mi ENE 10.4 mph - N/A   Overcast
3:19 AM 66.0 °F 62.1 °F 87% 30.12 in 10.0 mi ENE 11.5 mph - N/A   Overcast
3:53 AM 66.0 °F 62.1 °F 87% 30.08 in 10.0 mi East 9.2 mph - N/A   Overcast
4:53 AM 66.0 °F 61.0 °F 84% 30.07 in 10.0 mi East 12.7 mph - 0.00 in   Overcast
5:53 AM 64.9 °F 61.0 °F 87% 30.08 in 10.0 mi East 9.2 mph - N/A   Overcast
6:53 AM 64.0 °F 61.0 °F 90% 30.09 in 10.0 mi ENE 10.4 mph 18.4 mph 0.00 in   Overcast
7:00 AM 64.0 °F 61.0 °F 90% 30.13 in 10.0 mi East 10.4 mph - N/A   Overcast
7:15 AM 64.0 °F 61.0 °F 90% 30.15 in 10.0 mi East 10.4 mph - N/A   Overcast
7:26 AM 63.0 °F 61.0 °F 93% 30.15 in 10.0 mi ENE 6.9 mph - N/A   Overcast
7:53 AM 64.0 °F 61.0 °F 90% 30.12 in 10.0 mi East 11.5 mph 18.4 mph N/A   Overcast
8:53 AM 64.0 °F 61.0 °F 90% 30.13 in 10.0 mi East 11.5 mph - N/A   Overcast
9:53 AM 64.9 °F 61.0 °F 87% 30.14 in 10.0 mi East 9.2 mph - N/A   Overcast
10:18 AM 66.9 °F 62.1 °F 84% 30.17 in 10.0 mi East 13.8 mph - N/A   Overcast
10:53 AM 69.1 °F 62.1 °F 78% 30.14 in 10.0 mi ENE 10.4 mph - N/A   Overcast
11:53 AM 69.1 °F 62.1 °F 78% 30.14 in 10.0 mi East 10.4 mph - N/A   Overcast
12:53 PM 70.0 °F 62.1 °F 76% 30.12 in 10.0 mi East 11.5 mph - N/A   Overcast
1:53 PM 75.0 °F 63.0 °F 66% 30.10 in 10.0 mi ENE 10.4 mph 19.6 mph N/A   Overcast
2:36 PM 73.0 °F 63.0 °F 71% 30.14 in 10.0 mi East 8.1 mph - N/A   Overcast
2:53 PM 73.0 °F 63.0 °F 71% 30.09 in 10.0 mi ENE 8.1 mph - N/A   Overcast
3:44 PM 73.9 °F 64.0 °F 71% 30.11 in 10.0 mi East 10.4 mph - N/A   Overcast
3:53 PM 73.9 °F 64.0 °F 71% 30.06 in 10.0 mi East 6.9 mph - N/A   Overcast
4:00 PM 73.9 °F 64.0 °F 71% 30.10 in 10.0 mi East 9.2 mph - N/A   Overcast
4:08 PM 73.9 °F 64.0 °F 71% 30.10 in 10.0 mi East 11.5 mph - N/A   Overcast
4:42 PM 73.0 °F 64.0 °F 73% 30.09 in 10.0 mi East 10.4 mph - N/A   Overcast
4:53 PM 73.9 °F 64.9 °F 73% 30.05 in 10.0 mi East 10.4 mph - N/A   Overcast
5:12 PM 73.9 °F 64.9 °F 73% 30.08 in 10.0 mi East 12.7 mph - N/A   Overcast
5:53 PM 73.0 °F 64.0 °F 73% 30.05 in 10.0 mi East 11.5 mph - N/A   Overcast
6:53 PM 73.0 °F 64.9 °F 76% 30.05 in 10.0 mi East 9.2 mph - 0.00 in   Overcast
7:53 PM 72.0 °F 64.9 °F 78% 30.06 in 10.0 mi East 6.9 mph - N/A   Mostly Cloudy
8:28 PM 71.1 °F 66.0 °F 84% 30.10 in 10.0 mi East 5.8 mph - N/A   Mostly Cloudy
8:53 PM 71.1 °F 66.0 °F 84% 30.07 in 10.0 mi East 8.1 mph - N/A   Overcast
9:53 PM 71.1 °F 66.0 °F 84% 30.10 in 10.0 mi East 6.9 mph - N/A   Overcast
10:15 PM 71.1 °F 66.0 °F 84% 30.14 in 10.0 mi East 8.1 mph - N/A   Overcast
10:53 PM 71.1 °F 66.0 °F 84% 30.10 in 10.0 mi East 8.1 mph - N/A   Overcast
11:53 PM 70.0 °F 66.0 °F 87% 30.10 in 10.0 mi East 6.9 mph - N/A   Overcast